Other Public Products
Issued by NWS Charleston, SC

Current Version | Previous Version | Text Only | Print | Product List | Glossary Off
Versions: 1 2 3 4 5 6 7 8 9 10 11 12 13 14 15 16 17 18 19 20 21 22 23 24 25 26 27 28 29 30 31 32 33 34 35 36 37 38 39 40 41 42 43 44 45 46 47 48 49 50
809 FPUS82 KCHS 101027 OPUCHS TEST...KCHS/KSAV Gateway Observations...TEST National Weather Service Charleston SC 500 AM EST SAT DEC 10 2016 NOTE: "fair" indicates few or no clouds below 12,000 feet with no significant weather and/or obstructions to visibility. SCZ050-WAZ558-NCZ071-TXZ119-213-PAZ071-DCZ001-FLZ074-172-MI076- NYZ176-178-MAZ016-IL014-TNZ027-NJZ106-GAZ044-MD014-101100- ...Gateway Observations for Charleston International... CITY SKY/WX TMP DP RH WIND PRES REMARKS Chas Airport CLEAR 31 23 72 CALM 30.50R Seattle MOCLDY 36 35 96 SE8 29.82S WCI 30 Charlotte CLEAR 25 13 60 N3 30.50S Dallas DFW CLOUDY 38 23 55 SE10 30.46F WCI 31 Dallas Love MOCLDY 39 24 55 SE13 30.47F WCI 31 Philladelphia PTCLDY 28 17 63 W3 30.41R Wash National PTCLDY 31 15 52 W7 30.47S WCI 24 Baltimore MOCLDY 25 18 74 W9 30.44S WCI 15 Miami MOCLDY 64 63 96 N8 30.20S Detroit LGT SNOW 24 20 84 SW9 30.43S FOG WCI 14 Newark CLEAR 26 17 68 SW7 30.36R WCI 18 Laguardia CLEAR 32 17 54 NW13 30.34R WCI 22 J F K PTCLDY 30 15 53 W10 30.35S WCI 21 Boston Logan PTCLDY 22 7 52 W10 30.24S WCI 11 Ft. Lauderdale CLOUDY 65 65 100 NW10 30.19R Chicago O`Hare CLOUDY 19 12 74 W10 30.49F WCI 7 Chicago Midway CLOUDY 21 12 68 W7 30.51S WCI 12 Houston Bush PTCLDY 36 30 79 NE6 30.49F WCI 31 Houston Hobby CLEAR 40 31 70 E7 30.48F WCI 35 Nashville CLEAR 21 15 78 CALM 30.59R Atlanta CLEAR 27 19 72 NW9 30.47R WCI 18 $$ GAZ044-118-TXZ119-213-NCZ071-DCZ001-MDZ014-506-PAZ021-071-NJZ106- NYZ176-178-MAZ106-OHZ011-021-055-MIZ076-KYZ091-ILZ014-INZ047- MNZ060-101100- ...Gateway Observations for Savannah International... CITY SKY/WX TMP DP RH WIND PRES REMARKS Savannah Arpt CLEAR 31 28 89 N5 30.50R WCI 26 Atlanta CLEAR 27 19 72 NW9 30.47R WCI 18 Charlotte CLEAR 25 13 60 N3 30.50S Dallas DFW CLOUDY 38 23 55 SE10 30.46F WCI 31 Houston Bush PTCLDY 36 30 79 NE6 30.49F WCI 31 Wash National PTCLDY 31 15 52 W7 30.47S WCI 24 Wash Dulles PTCLDY 27 13 55 W5 30.46S WCI 22 Baltimore MOCLDY 25 18 74 W9 30.44S WCI 15 Philadelphia PTCLDY 28 17 63 W3 30.41R Newark CLEAR 26 17 68 SW7 30.36R WCI 18 Laguardia CLEAR 32 17 54 NW13 30.34R WCI 22 J F K PTCLDY 30 15 53 W10 30.35S WCI 21 Boston PTCLDY 22 7 52 W10 30.24S WCI 11 Pittsburg FLURRIES 25 20 81 W7 30.42R WCI 17 Akron FLURRIES 24 16 71 W10 30.42S WCI 14 Cleveland CLOUDY 25 16 68 SW15 30.45R WCI 13 Cincinnati CLOUDY 20 16 84 SW3 30.53F Columbus N/A 23 18 83 W12 30.51F WCI 11 Detroit LGT SNOW 24 20 84 SW9 30.43S FOG WCI 14 Chicago O`Hare CLOUDY 19 12 74 W10 30.49F WCI 7 Minneapolis CLEAR 5 -1 76 NW7 30.51F WCI -7 Indianapolis CLOUDY 22 15 75 W6 30.52S WCI 14 $$

USA.gov is the U.S. government's official web portal to all federal, state and local government web resources and services.